Orbital Elements at Epoch 2459000.5 (2020-May-31.0) TDB
Reference: JPL 16 (heliocentric ecliptic J2000)
Element | Value | Uncertainty (1-sigma) | Units |
e | .1658855181303001 | 4.0694e-08 | |
a | 2.740984204919579 | 2.0962e-08 | au |
q | 2.286294619899526 | 1.1196e-07 | au |
i | 4.46620601253973 | 5.6819e-06 | deg |
node | 134.7621463394903 | 5.8502e-05 | deg |
peri | 118.3822639239865 | 6.1152e-05 | deg |
M | 267.3543376808871 | 1.9302e-05 | deg |
tp | 2459427.060675875444 (2021-Jul-31.56067588) | 9.0727e-05 | TDB |
period | 1657.517896371924 4.54 | 1.9014e-05 5.206e-08 | d yr |
n | .2171922250661606 | 2.4915e-09 | deg/d |
Q | 3.195673789939632 | 2.4439e-08 | au |
|
| | Orbit Determination Parameters
Additional Information
|